Time,TemperatureF,DewpointF,PressureIn,WindDirection,WindDirectionDegrees,WindSpeedMPH,WindSpeedGustMPH,Humidity,HourlyPrecipIn,Conditions,Clouds,dailyrainin,SolarRadiationWatts/m^2,SoftwareType,DateUTC
2013-04-23 00:01:00,44.2,37.4,30.27,East,95,0.0,2.0,77,0.00,,,0.00,0,HR-IXPWINDi_r2_v1.2.,2013-04-23 04:01:00,
2013-04-23 00:06:00,44.0,37.5,30.27,East,95,0.0,2.0,78,0.00,,,0.00,0,HR-IXPWINDi_r2_v1.2.,2013-04-23 04:06:00,
2013-04-23 00:11:00,43.5,37.4,30.27,East,95,0.0,1.0,79,0.00,,,0.00,0,HR-IXPWINDi_r2_v1.2.,2013-04-23 04:11:00,
2013-04-23 00:16:00,43.4,37.3,30.27,East,95,0.0,2.0,79,0.00,,,0.00,0,HR-IXPWINDi_r2_v1.2.,2013-04-23 04:16:00,
2013-04-23 00:21:00,43.2,37.4,30.27,East,95,0.0,2.0,80,0.00,,,0.00,0,HR-IXPWINDi_r2_v1.2.,2013-04-23 04:21:00,
2013-04-23 00:26:00,43.6,37.8,30.27,East,95,0.0,2.0,80,0.00,,,0.00,0,HR-IXPWINDi_r2_v1.2.,2013-04-23 04:26:00,
2013-04-23 00:31:00,43.3,37.5,30.27,East,95,0.0,0.0,80,0.00,,,0.00,0,HR-IXPWINDi_r2_v1.2.,2013-04-23 04:31:00,
2013-04-23 00:36:00,42.9,37.4,30.27,East,95,0.0,0.0,81,0.00,,,0.00,0,HR-IXPWINDi_r2_v1.2.,2013-04-23 04:36:00,
2013-04-23 00:41:00,42.8,37.3,30.26,East,95,0.0,0.0,81,0.00,,,0.00,0,HR-IXPWINDi_r2_v1.2.,2013-04-23 04:41:00,
2013-04-23 00:46:00,42.5,37.4,30.27,East,94,0.0,0.0,82,0.00,,,0.00,0,HR-IXPWINDi_r2_v1.2.,2013-04-23 04:46:00,
2013-04-23 00:52:00,42.0,37.2,30.27,East,95,0.0,0.0,83,0.00,,,0.00,0,HR-IXPWINDi_r2_v1.2.,2013-04-23 04:52:00,
2013-04-23 00:57:00,42.0,37.2,30.27,East,95,0.0,0.0,83,0.00,,,0.00,0,HR-IXPWINDi_r2_v1.2.,2013-04-23 04:57:00,
2013-04-23 01:02:00,41.9,37.1,30.27,East,95,0.0,0.0,83,0.00,,,0.00,0,HR-IXPWINDi_r2_v1.2.,2013-04-23 05:02:00,
2013-04-23 01:07:00,41.9,37.1,30.27,East,95,0.0,0.0,83,0.00,,,0.00,0,HR-IXPWINDi_r2_v1.2.,2013-04-23 05:07:00,
2013-04-23 01:12:00,41.6,36.8,30.27,East,95,0.0,0.0,83,0.00,,,0.00,0,HR-IXPWINDi_r2_v1.2.,2013-04-23 05:12:00,
2013-04-23 01:17:00,41.5,37.0,30.27,East,95,0.0,2.0,84,0.00,,,0.00,0,HR-IXPWINDi_r2_v1.2.,2013-04-23 05:17:00,
2013-04-23 01:22:00,41.3,36.5,30.27,East,95,0.0,2.0,83,0.00,,,0.00,0,HR-IXPWINDi_r2_v1.2.,2013-04-23 05:22:00,
2013-04-23 01:28:00,40.8,36.6,30.27,East,95,0.0,0.0,85,0.00,,,0.00,0,HR-IXPWINDi_r2_v1.2.,2013-04-23 05:28:00,
2013-04-23 01:33:00,40.9,36.7,30.27,East,94,0.0,0.0,85,0.00,,,0.00,0,HR-IXPWINDi_r2_v1.2.,2013-04-23 05:33:00,
2013-04-23 01:38:00,41.3,36.8,30.27,East,95,0.0,0.0,84,0.00,,,0.00,0,HR-IXPWINDi_r2_v1.2.,2013-04-23 05:38:00,
2013-04-23 01:43:00,40.6,36.1,30.27,East,95,0.0,0.0,84,0.00,,,0.00,0,HR-IXPWINDi_r2_v1.2.,2013-04-23 05:43:00,
2013-04-23 01:49:00,39.7,35.8,30.27,East,95,0.0,1.0,86,0.00,,,0.00,0,HR-IXPWINDi_r2_v1.2.,2013-04-23 05:49:00,
2013-04-23 01:54:00,39.3,35.7,30.27,East,95,0.0,1.0,87,0.00,,,0.00,0,HR-IXPWINDi_r2_v1.2.,2013-04-23 05:54:00,
2013-04-23 01:59:00,39.3,36.0,30.27,East,95,0.0,0.0,88,0.00,,,0.00,0,HR-IXPWINDi_r2_v1.2.,2013-04-23 05:59:00,
2013-04-23 02:04:00,39.7,36.1,30.27,East,95,0.0,0.0,87,0.00,,,0.00,0,HR-IXPWINDi_r2_v1.2.,2013-04-23 06:04:00,
2013-04-23 02:09:00,39.5,35.9,30.27,East,95,0.0,0.0,87,0.00,,,0.00,0,HR-IXPWINDi_r2_v1.2.,2013-04-23 06:09:00,
2013-04-23 02:15:00,39.4,35.8,30.26,East,95,0.0,0.0,87,0.00,,,0.00,0,HR-IXPWINDi_r2_v1.2.,2013-04-23 06:15:00,
2013-04-23 02:20:00,39.6,35.7,30.26,East,95,0.0,1.0,86,0.00,,,0.00,0,HR-IXPWINDi_r2_v1.2.,2013-04-23 06:20:00,
2013-04-23 02:25:00,39.7,35.8,30.26,East,95,0.0,1.0,86,0.00,,,0.00,0,HR-IXPWINDi_r2_v1.2.,2013-04-23 06:25:00,
2013-04-23 02:30:00,39.5,35.3,30.26,East,95,0.0,0.0,85,0.00,,,0.00,0,HR-IXPWINDi_r2_v1.2.,2013-04-23 06:30:00,
2013-04-23 02:36:00,38.9,35.0,30.26,East,95,0.0,0.0,86,0.00,,,0.00,0,HR-IXPWINDi_r2_v1.2.,2013-04-23 06:36:00,
2013-04-23 02:41:00,39.3,35.4,30.26,East,95,0.0,1.0,86,0.00,,,0.00,0,HR-IXPWINDi_r2_v1.2.,2013-04-23 06:41:00,
2013-04-23 02:46:00,39.5,35.3,30.26,East,95,1.0,1.0,85,0.00,,,0.00,0,HR-IXPWINDi_r2_v1.2.,2013-04-23 06:46:00,
2013-04-23 02:51:00,38.9,35.0,30.26,East,95,0.0,1.0,86,0.00,,,0.00,0,HR-IXPWINDi_r2_v1.2.,2013-04-23 06:51:00,
2013-04-23 02:56:00,38.2,34.6,30.26,East,95,0.0,1.0,87,0.00,,,0.00,0,HR-IXPWINDi_r2_v1.2.,2013-04-23 06:56:00,
2013-04-23 03:01:00,38.0,34.7,30.26,East,95,0.0,1.0,88,0.00,,,0.00,0,HR-IXPWINDi_r2_v1.2.,2013-04-23 07:01:00,
2013-04-23 03:06:00,37.8,34.5,30.26,East,95,1.0,2.0,88,0.00,,,0.00,0,HR-IXPWINDi_r2_v1.2.,2013-04-23 07:06:00,
2013-04-23 03:11:00,37.1,34.1,30.26,East,95,2.0,4.0,89,0.00,,,0.00,0,HR-IXPWINDi_r2_v1.2.,2013-04-23 07:11:00,
2013-04-23 03:17:00,37.0,34.3,30.26,East,95,1.0,4.0,90,0.00,,,0.00,0,HR-IXPWINDi_r2_v1.2.,2013-04-23 07:17:00,
2013-04-23 03:22:00,37.0,34.3,30.26,East,95,0.0,2.0,90,0.00,,,0.00,0,HR-IXPWINDi_r2_v1.2.,2013-04-23 07:22:00,
2013-04-23 03:27:00,37.1,34.4,30.26,East,95,0.0,2.0,90,0.00,,,0.00,0,HR-IXPWINDi_r2_v1.2.,2013-04-23 07:27:00,
2013-04-23 03:32:00,37.3,34.3,30.25,East,95,0.0,2.0,89,0.00,,,0.00,0,HR-IXPWINDi_r2_v1.2.,2013-04-23 07:32:00,
2013-04-23 03:37:00,36.9,34.2,30.26,East,95,0.0,2.0,90,0.00,,,0.00,0,HR-IXPWINDi_r2_v1.2.,2013-04-23 07:37:00,
2013-04-23 03:43:00,36.6,33.9,30.26,East,95,0.0,1.0,90,0.00,,,0.00,0,HR-IXPWINDi_r2_v1.2.,2013-04-23 07:43:00,
2013-04-23 03:48:00,36.5,33.8,30.26,East,95,0.0,1.0,90,0.00,,,0.00,0,HR-IXPWINDi_r2_v1.2.,2013-04-23 07:48:00,
2013-04-23 03:53:00,36.4,34.0,30.26,East,95,0.0,1.0,91,0.00,,,0.00,0,HR-IXPWINDi_r2_v1.2.,2013-04-23 07:53:00,
2013-04-23 03:58:00,37.4,35.0,30.26,East,95,0.0,1.0,91,0.00,,,0.00,0,HR-IXPWINDi_r2_v1.2.,2013-04-23 07:58:00,
2013-04-23 04:03:00,37.0,34.3,30.26,East,94,0.0,2.0,90,0.00,,,0.00,0,HR-IXPWINDi_r2_v1.2.,2013-04-23 08:03:00,
2013-04-23 04:09:00,37.3,34.6,30.26,East,95,0.0,2.0,90,0.00,,,0.00,0,HR-IXPWINDi_r2_v1.2.,2013-04-23 08:09:00,
2013-04-23 04:14:00,36.9,33.9,30.26,East,95,0.0,0.0,89,0.00,,,0.00,0,HR-IXPWINDi_r2_v1.2.,2013-04-23 08:14:00,
2013-04-23 04:19:00,36.1,33.4,30.26,East,95,0.0,2.0,90,0.00,,,0.00,0,HR-IXPWINDi_r2_v1.2.,2013-04-23 08:19:00,
2013-04-23 04:24:00,35.6,32.9,30.26,East,95,0.0,2.0,90,0.00,,,0.00,0,HR-IXPWINDi_r2_v1.2.,2013-04-23 08:24:00,
2013-04-23 04:30:00,35.9,33.5,30.26,East,95,0.0,0.0,91,0.00,,,0.00,0,HR-IXPWINDi_r2_v1.2.,2013-04-23 08:30:00,
2013-04-23 04:35:00,35.6,33.2,30.26,East,95,0.0,2.0,91,0.00,,,0.00,0,HR-IXPWINDi_r2_v1.2.,2013-04-23 08:35:00,
2013-04-23 04:40:00,35.1,32.7,30.25,ESE,105,4.0,4.0,91,0.00,,,0.00,0,HR-IXPWINDi_r2_v1.2.,2013-04-23 08:40:00,
2013-04-23 04:45:00,35.1,33.0,30.25,ESE,109,2.0,4.0,92,0.00,,,0.00,0,HR-IXPWINDi_r2_v1.2.,2013-04-23 08:45:00,
2013-04-23 04:50:00,35.1,33.0,30.25,ESE,109,2.0,5.0,92,0.00,,,0.00,0,HR-IXPWINDi_r2_v1.2.,2013-04-23 08:50:00,
2013-04-23 04:55:00,35.5,33.4,30.25,ESE,109,2.0,5.0,92,0.00,,,0.00,0,HR-IXPWINDi_r2_v1.2.,2013-04-23 08:55:00,
2013-04-23 05:01:00,35.7,33.6,30.25,ESE,109,0.0,4.0,92,0.00,,,0.00,0,HR-IXPWINDi_r2_v1.2.,2013-04-23 09:01:00,
2013-04-23 05:06:00,36.2,33.8,30.25,ESE,109,2.0,2.0,91,0.00,,,0.00,0,HR-IXPWINDi_r2_v1.2.,2013-04-23 09:06:00,
2013-04-23 05:11:00,36.1,33.4,30.25,ESE,109,0.0,2.0,90,0.00,,,0.00,0,HR-IXPWINDi_r2_v1.2.,2013-04-23 09:11:00,
2013-04-23 05:16:00,36.0,33.3,30.25,ESE,109,0.0,2.0,90,0.00,,,0.00,0,HR-IXPWINDi_r2_v1.2.,2013-04-23 09:16:00,
2013-04-23 05:22:00,36.0,33.3,30.25,East,98,0.0,4.0,90,0.00,,,0.00,0,HR-IXPWINDi_r2_v1.2.,2013-04-23 09:22:00,
2013-04-23 05:27:00,35.6,32.9,30.24,East,98,0.0,4.0,90,0.00,,,0.00,0,HR-IXPWINDi_r2_v1.2.,2013-04-23 09:27:00,
2013-04-23 05:32:00,34.8,32.1,30.24,East,98,2.0,2.0,90,0.00,,,0.00,0,HR-IXPWINDi_r2_v1.2.,2013-04-23 09:32:00,
2013-04-23 05:37:00,34.6,32.2,30.25,East,98,1.0,4.0,91,0.00,,,0.00,0,HR-IXPWINDi_r2_v1.2.,2013-04-23 09:37:00,
2013-04-23 05:42:00,34.8,32.4,30.25,East,98,1.0,4.0,91,0.00,,,0.00,0,HR-IXPWINDi_r2_v1.2.,2013-04-23 09:42:00,
2013-04-23 05:48:00,35.3,32.9,30.25,East,98,0.0,2.0,91,0.00,,,0.00,0,HR-IXPWINDi_r2_v1.2.,2013-04-23 09:48:00,
2013-04-23 05:53:00,35.4,33.0,30.24,East,98,0.0,2.0,91,0.00,,,0.00,0,HR-IXPWINDi_r2_v1.2.,2013-04-23 09:53:00,
2013-04-23 05:58:00,35.3,32.9,30.24,East,98,0.0,0.0,91,0.00,,,0.00,0,HR-IXPWINDi_r2_v1.2.,2013-04-23 09:58:00,
2013-04-23 06:03:00,35.2,32.8,30.24,East,88,3.0,4.0,91,0.00,,,0.00,0,HR-IXPWINDi_r2_v1.2.,2013-04-23 10:03:00,
2013-04-23 06:09:00,35.2,32.8,30.25,East,88,0.0,4.0,91,0.00,,,0.00,0,HR-IXPWINDi_r2_v1.2.,2013-04-23 10:09:00,
2013-04-23 06:14:00,35.3,32.6,30.25,East,88,0.0,3.0,90,0.00,,,0.00,0,HR-IXPWINDi_r2_v1.2.,2013-04-23 10:14:00,
2013-04-23 06:19:00,34.8,32.1,30.26,East,88,0.0,0.0,90,0.00,,,0.00,0,HR-IXPWINDi_r2_v1.2.,2013-04-23 10:19:00,
2013-04-23 06:24:00,34.5,32.1,30.26,East,88,0.0,1.0,91,0.00,,,0.00,0,HR-IXPWINDi_r2_v1.2.,2013-04-23 10:24:00,
2013-04-23 06:30:00,34.4,32.0,30.26,East,88,0.0,1.0,91,0.00,,,0.00,0,HR-IXPWINDi_r2_v1.2.,2013-04-23 10:30:00,
2013-04-23 06:35:00,34.1,31.7,30.25,East,88,2.0,2.0,91,0.00,,,0.00,0,HR-IXPWINDi_r2_v1.2.,2013-04-23 10:35:00,
2013-04-23 06:40:00,33.9,31.8,30.25,East,88,2.0,2.0,92,0.00,,,0.00,0,HR-IXPWINDi_r2_v1.2.,2013-04-23 10:40:00,
2013-04-23 06:45:00,33.7,31.6,30.26,East,91,4.0,4.0,92,0.00,,,0.00,0,HR-IXPWINDi_r2_v1.2.,2013-04-23 10:45:00,
2013-04-23 06:50:00,34.1,32.3,30.26,ESE,105,4.0,5.0,93,0.00,,,0.00,5,HR-IXPWINDi_r2_v1.2.,2013-04-23 10:50:00,
2013-04-23 06:55:00,34.6,32.8,30.25,ESE,105,1.0,5.0,93,0.00,,,0.00,9,HR-IXPWINDi_r2_v1.2.,2013-04-23 10:55:00,
2013-04-23 07:00:00,34.8,32.9,30.25,ESE,107,1.0,5.0,93,0.00,,,0.00,12,HR-IXPWINDi_r2_v1.2.,2013-04-23 11:00:00,
2013-04-23 07:05:00,34.8,32.7,30.25,ESE,107,1.0,5.0,92,0.00,,,0.00,16,HR-IXPWINDi_r2_v1.2.,2013-04-23 11:05:00,
2013-04-23 07:11:00,35.0,32.9,30.25,ESE,107,0.0,4.0,92,0.00,,,0.00,19,HR-IXPWINDi_r2_v1.2.,2013-04-23 11:11:00,
2013-04-23 07:16:00,35.1,33.0,30.24,ESE,107,0.0,2.0,92,0.00,,,0.00,23,HR-IXPWINDi_r2_v1.2.,2013-04-23 11:16:00,
2013-04-23 07:21:00,34.8,32.7,30.24,ESE,107,0.0,1.0,92,0.00,,,0.00,26,HR-IXPWINDi_r2_v1.2.,2013-04-23 11:21:00,
2013-04-23 07:26:00,34.9,32.8,30.24,ESE,107,0.0,1.0,92,0.00,,,0.00,30,HR-IXPWINDi_r2_v1.2.,2013-04-23 11:26:00,
2013-04-23 07:31:00,34.8,32.7,30.24,ESE,107,0.0,1.0,92,0.00,,,0.00,37,HR-IXPWINDi_r2_v1.2.,2013-04-23 11:31:00,
2013-04-23 07:37:00,34.7,32.6,30.25,ESE,107,0.0,2.0,92,0.00,,,0.00,90,HR-IXPWINDi_r2_v1.2.,2013-04-23 11:37:00,
2013-04-23 07:42:00,35.3,33.2,30.25,ESE,107,0.0,2.0,92,0.00,,,0.00,98,HR-IXPWINDi_r2_v1.2.,2013-04-23 11:42:00,
2013-04-23 07:47:00,36.2,34.1,30.25,ESE,107,0.0,1.0,92,0.00,,,0.00,120,HR-IXPWINDi_r2_v1.2.,2013-04-23 11:47:00,
2013-04-23 07:53:00,36.8,34.1,30.25,ESE,107,0.0,1.0,90,0.00,,,0.00,137,HR-IXPWINDi_r2_v1.2.,2013-04-23 11:53:00,
2013-04-23 07:58:00,37.5,34.8,30.26,ESE,107,0.0,1.0,90,0.00,,,0.00,156,HR-IXPWINDi_r2_v1.2.,2013-04-23 11:58:00,
2013-04-23 08:03:00,37.9,35.2,30.26,ESE,107,0.0,1.0,90,0.00,,,0.00,172,HR-IXPWINDi_r2_v1.2.,2013-04-23 12:03:00,
2013-04-23 08:08:00,38.4,35.1,30.27,ESE,107,0.0,0.0,88,0.00,,,0.00,193,HR-IXPWINDi_r2_v1.2.,2013-04-23 12:08:00,
2013-04-23 08:14:00,39.2,35.6,30.27,ESE,107,0.0,0.0,87,0.00,,,0.00,211,HR-IXPWINDi_r2_v1.2.,2013-04-23 12:14:00,
2013-04-23 08:19:00,39.4,35.2,30.27,ESE,107,0.0,1.0,85,0.00,,,0.00,230,HR-IXPWINDi_r2_v1.2.,2013-04-23 12:19:00,
2013-04-23 08:24:00,40.5,36.3,30.28,ESE,107,0.0,1.0,85,0.00,,,0.00,251,HR-IXPWINDi_r2_v1.2.,2013-04-23 12:24:00,
2013-04-23 08:29:00,41.7,36.3,30.28,ESE,107,0.0,1.0,81,0.00,,,0.00,271,HR-IXPWINDi_r2_v1.2.,2013-04-23 12:29:00,
2013-04-23 08:34:00,42.3,36.8,30.29,ESE,107,0.0,1.0,81,0.00,,,0.00,287,HR-IXPWINDi_r2_v1.2.,2013-04-23 12:34:00,
2013-04-23 08:40:00,43.8,37.3,30.29,ESE,107,2.0,2.0,78,0.00,,,0.00,306,HR-IXPWINDi_r2_v1.2.,2013-04-23 12:40:00,
2013-04-23 08:46:00,44.1,35.3,30.29,SE,142,2.0,5.0,71,0.00,,,0.00,327,HR-IXPWINDi_r2_v1.2.,2013-04-23 12:46:00,
2013-04-23 08:51:00,44.3,35.8,30.29,SSE,161,0.0,5.0,72,0.00,,,0.00,345,HR-IXPWINDi_r2_v1.2.,2013-04-23 12:51:00,
2013-04-23 08:56:00,45.4,36.2,30.28,SSE,161,0.0,4.0,70,0.00,,,0.00,367,HR-IXPWINDi_r2_v1.2.,2013-04-23 12:56:00,
2013-04-23 09:01:00,46.3,35.9,30.27,SSE,161,0.0,1.0,67,0.00,,,0.00,383,HR-IXPWINDi_r2_v1.2.,2013-04-23 13:01:00,
2013-04-23 09:07:00,46.5,35.3,30.27,SSE,160,0.0,4.0,65,0.00,,,0.00,403,HR-IXPWINDi_r2_v1.2.,2013-04-23 13:07:00,
2013-04-23 09:12:00,47.3,35.3,30.27,SSE,160,0.0,4.0,63,0.00,,,0.00,420,HR-IXPWINDi_r2_v1.2.,2013-04-23 13:12:00,
2013-04-23 09:17:00,48.1,35.7,30.26,SSE,160,0.0,1.0,62,0.00,,,0.00,438,HR-IXPWINDi_r2_v1.2.,2013-04-23 13:17:00,
2013-04-23 09:22:00,48.7,36.2,30.27,SSE,160,0.0,1.0,62,0.00,,,0.00,455,HR-IXPWINDi_r2_v1.2.,2013-04-23 13:22:00,
2013-04-23 09:27:00,48.8,35.1,30.27,SSE,160,0.0,1.0,59,0.00,,,0.00,469,HR-IXPWINDi_r2_v1.2.,2013-04-23 13:27:00,
2013-04-23 09:33:00,50.5,36.7,30.26,SSE,160,1.0,2.0,59,0.00,,,0.00,490,HR-IXPWINDi_r2_v1.2.,2013-04-23 13:33:00,
2013-04-23 09:38:00,50.8,36.1,30.26,SSE,160,4.0,4.0,57,0.00,,,0.00,508,HR-IXPWINDi_r2_v1.2.,2013-04-23 13:38:00,
2013-04-23 09:43:00,50.8,35.6,30.26,SSE,153,2.0,6.0,56,0.00,,,0.00,526,HR-IXPWINDi_r2_v1.2.,2013-04-23 13:43:00,
2013-04-23 09:49:00,51.4,34.8,30.25,SSE,164,1.0,6.0,53,0.00,,,0.00,531,HR-IXPWINDi_r2_v1.2.,2013-04-23 13:49:00,
2013-04-23 09:54:00,51.8,35.6,30.25,SSE,164,1.0,5.0,54,0.00,,,0.00,559,HR-IXPWINDi_r2_v1.2.,2013-04-23 13:54:00,
2013-04-23 09:59:00,53.4,35.7,30.24,SSE,164,0.0,4.0,51,0.00,,,0.00,580,HR-IXPWINDi_r2_v1.2.,2013-04-23 13:59:00,
2013-04-23 10:05:00,53.4,35.2,30.25,SSE,161,1.0,4.0,50,0.00,,,0.00,596,HR-IXPWINDi_r2_v1.2.,2013-04-23 14:05:00,
2013-04-23 10:10:00,53.7,35.5,30.25,SSW,194,3.0,8.0,50,0.00,,,0.00,608,HR-IXPWINDi_r2_v1.2.,2013-04-23 14:10:00,
2013-04-23 10:15:00,54.5,36.7,30.25,SSW,206,4.0,8.0,51,0.00,,,0.00,624,HR-IXPWINDi_r2_v1.2.,2013-04-23 14:15:00,
2013-04-23 10:21:00,54.3,36.5,30.25,South,190,0.0,9.0,51,0.00,,,0.00,640,HR-IXPWINDi_r2_v1.2.,2013-04-23 14:21:00,
2013-04-23 10:26:00,55.0,36.7,30.26,SSW,200,4.0,10.0,50,0.00,,,0.00,652,HR-IXPWINDi_r2_v1.2.,2013-04-23 14:26:00,
2013-04-23 10:31:00,54.6,36.3,30.26,SSW,209,2.0,10.0,50,0.00,,,0.00,668,HR-IXPWINDi_r2_v1.2.,2013-04-23 14:31:00,
2013-04-23 10:36:00,54.8,37.5,30.26,South,188,5.0,9.0,52,0.00,,,0.00,682,HR-IXPWINDi_r2_v1.2.,2013-04-23 14:36:00,
2013-04-23 10:42:00,55.9,37.5,30.26,North,355,0.0,8.0,50,0.00,,,0.00,698,HR-IXPWINDi_r2_v1.2.,2013-04-23 14:42:00,
2013-04-23 10:47:00,56.6,38.1,30.26,South,190,1.0,6.0,50,0.00,,,0.00,714,HR-IXPWINDi_r2_v1.2.,2013-04-23 14:47:00,
2013-04-23 10:52:00,56.3,37.3,30.26,SSW,204,3.0,9.0,49,0.00,,,0.00,726,HR-IXPWINDi_r2_v1.2.,2013-04-23 14:52:00,
2013-04-23 10:57:00,57.1,38.6,30.26,South,186,0.0,9.0,50,0.00,,,0.00,744,HR-IXPWINDi_r2_v1.2.,2013-04-23 14:57:00,
2013-04-23 11:03:00,56.9,38.4,30.26,SSW,196,7.0,7.0,50,0.00,,,0.00,731,HR-IXPWINDi_r2_v1.2.,2013-04-23 15:03:00,
2013-04-23 11:08:00,56.9,37.4,30.26,South,179,5.0,9.0,48,0.00,,,0.00,759,HR-IXPWINDi_r2_v1.2.,2013-04-23 15:08:00,
2013-04-23 11:13:00,56.4,38.0,30.26,South,191,4.0,9.0,50,0.00,,,0.00,765,HR-IXPWINDi_r2_v1.2.,2013-04-23 15:13:00,
2013-04-23 11:18:00,57.9,38.8,30.26,SW,216,3.0,9.0,49,0.00,,,0.00,779,HR-IXPWINDi_r2_v1.2.,2013-04-23 15:18:00,
2013-04-23 11:23:00,57.3,37.7,30.26,South,187,1.0,9.0,48,0.00,,,0.00,788,HR-IXPWINDi_r2_v1.2.,2013-04-23 15:23:00,
2013-04-23 11:29:00,59.3,40.6,30.25,NNW,344,1.0,9.0,50,0.00,,,0.00,798,HR-IXPWINDi_r2_v1.2.,2013-04-23 15:29:00,
2013-04-23 11:34:00,59.3,42.1,30.25,SSW,208,7.0,8.0,53,0.00,,,0.00,810,HR-IXPWINDi_r2_v1.2.,2013-04-23 15:34:00,
2013-04-23 11:40:00,58.8,38.6,30.25,South,186,1.0,7.0,47,0.00,,,0.00,817,HR-IXPWINDi_r2_v1.2.,2013-04-23 15:40:00,
2013-04-23 11:45:00,60.0,40.7,30.25,SSW,198,1.0,7.0,49,0.00,,,0.00,826,HR-IXPWINDi_r2_v1.2.,2013-04-23 15:45:00,
2013-04-23 11:50:00,60.0,41.3,30.25,SSW,211,4.0,10.0,50,0.00,,,0.00,837,HR-IXPWINDi_r2_v1.2.,2013-04-23 15:50:00,
2013-04-23 11:56:00,60.2,40.4,30.24,SSW,197,0.0,10.0,48,0.00,,,0.00,846,HR-IXPWINDi_r2_v1.2.,2013-04-23 15:56:00,
2013-04-23 12:02:00,60.7,39.2,30.24,SSW,209,3.0,10.0,45,0.00,,,0.00,851,HR-IXPWINDi_r2_v1.2.,2013-04-23 16:02:00,
2013-04-23 12:07:00,60.8,39.9,30.24,South,180,1.0,7.0,46,0.00,,,0.00,860,HR-IXPWINDi_r2_v1.2.,2013-04-23 16:07:00,
2013-04-23 12:12:00,60.8,40.9,30.23,SSE,160,5.0,7.0,48,0.00,,,0.00,867,HR-IXPWINDi_r2_v1.2.,2013-04-23 16:12:00,
2013-04-23 12:17:00,61.7,40.7,30.23,SSW,209,7.0,10.0,46,0.00,,,0.00,867,HR-IXPWINDi_r2_v1.2.,2013-04-23 16:17:00,
2013-04-23 12:22:00,61.4,39.8,30.23,South,190,4.0,10.0,45,0.00,,,0.00,872,HR-IXPWINDi_r2_v1.2.,2013-04-23 16:22:00,
2013-04-23 12:28:00,62.3,41.2,30.22,SSW,204,0.0,9.0,46,0.00,,,0.00,879,HR-IXPWINDi_r2_v1.2.,2013-04-23 16:28:00,
2013-04-23 12:33:00,62.8,41.7,30.22,SSW,213,4.0,9.0,46,0.00,,,0.00,888,HR-IXPWINDi_r2_v1.2.,2013-04-23 16:33:00,
2013-04-23 12:38:00,62.9,42.3,30.21,SE,140,2.0,8.0,47,0.00,,,0.00,889,HR-IXPWINDi_r2_v1.2.,2013-04-23 16:38:00,
2013-04-23 12:44:00,63.2,40.9,30.21,SSW,200,1.0,9.0,44,0.00,,,0.00,895,HR-IXPWINDi_r2_v1.2.,2013-04-23 16:44:00,
2013-04-23 12:49:00,63.6,41.8,30.21,South,176,1.0,9.0,45,0.00,,,0.00,898,HR-IXPWINDi_r2_v1.2.,2013-04-23 16:49:00,
2013-04-23 12:54:00,64.8,42.3,30.20,South,183,6.0,9.0,44,0.00,,,0.00,900,HR-IXPWINDi_r2_v1.2.,2013-04-23 16:54:00,
2013-04-23 12:59:00,64.6,42.7,30.20,South,171,4.0,9.0,45,0.00,,,0.00,902,HR-IXPWINDi_r2_v1.2.,2013-04-23 16:59:00,
2013-04-23 13:05:00,65.4,44.0,30.19,South,191,2.0,7.0,46,0.00,,,0.00,902,HR-IXPWINDi_r2_v1.2.,2013-04-23 17:05:00,
2013-04-23 13:10:00,65.4,42.9,30.19,SSE,157,6.0,11.0,44,0.00,,,0.00,905,HR-IXPWINDi_r2_v1.2.,2013-04-23 17:10:00,
2013-04-23 13:16:00,65.3,41.0,30.18,SSW,197,4.0,11.0,41,0.00,,,0.00,905,HR-IXPWINDi_r2_v1.2.,2013-04-23 17:16:00,
2013-04-23 13:21:00,65.8,42.0,30.18,West,269,2.0,8.0,42,0.00,,,0.00,909,HR-IXPWINDi_r2_v1.2.,2013-04-23 17:21:00,
2013-04-23 13:26:00,67.9,42.0,30.18,South,189,2.0,8.0,39,0.00,,,0.00,907,HR-IXPWINDi_r2_v1.2.,2013-04-23 17:26:00,
2013-04-23 13:31:00,66.9,41.8,30.17,WSW,249,0.0,6.0,40,0.00,,,0.00,909,HR-IXPWINDi_r2_v1.2.,2013-04-23 17:31:00,
2013-04-23 13:36:00,67.2,42.0,30.17,SSW,210,8.0,10.0,40,0.00,,,0.00,909,HR-IXPWINDi_r2_v1.2.,2013-04-23 17:36:00,
2013-04-23 13:42:00,67.1,43.2,30.17,SSW,198,9.0,10.0,42,0.00,,,0.00,904,HR-IXPWINDi_r2_v1.2.,2013-04-23 17:42:00,
2013-04-23 13:47:00,66.9,41.8,30.17,South,184,8.0,10.0,40,0.00,,,0.00,886,HR-IXPWINDi_r2_v1.2.,2013-04-23 17:47:00,
2013-04-23 13:52:00,67.5,42.3,30.17,South,186,3.0,10.0,40,0.00,,,0.00,898,HR-IXPWINDi_r2_v1.2.,2013-04-23 17:52:00,
2013-04-23 13:58:00,68.0,40.7,30.17,South,191,10.0,11.0,37,0.00,,,0.00,896,HR-IXPWINDi_r2_v1.2.,2013-04-23 17:58:00,
2013-04-23 14:03:00,66.9,39.7,30.16,South,178,2.0,11.0,37,0.00,,,0.00,893,HR-IXPWINDi_r2_v1.2.,2013-04-23 18:03:00,
2013-04-23 14:09:00,68.8,42.1,30.16,SSW,195,6.0,10.0,38,0.00,,,0.00,889,HR-IXPWINDi_r2_v1.2.,2013-04-23 18:09:00,
2013-04-23 14:14:00,69.3,43.2,30.16,SSW,204,5.0,10.0,39,0.00,,,0.00,886,HR-IXPWINDi_r2_v1.2.,2013-04-23 18:14:00,
2013-04-23 14:19:00,68.8,43.5,30.16,SW,214,4.0,10.0,40,0.00,,,0.00,884,HR-IXPWINDi_r2_v1.2.,2013-04-23 18:19:00,
2013-04-23 14:25:00,68.2,40.2,30.15,South,188,0.0,8.0,36,0.00,,,0.00,768,HR-IXPWINDi_r2_v1.2.,2013-04-23 18:25:00,
2013-04-23 14:30:00,68.8,40.0,30.15,South,191,4.0,8.0,35,0.00,,,0.00,881,HR-IXPWINDi_r2_v1.2.,2013-04-23 18:30:00,
2013-04-23 14:35:00,68.2,40.9,30.15,SSE,153,0.0,6.0,37,0.00,,,0.00,863,HR-IXPWINDi_r2_v1.2.,2013-04-23 18:35:00,
2013-04-23 14:40:00,69.6,40.0,30.14,NW,307,0.0,6.0,34,0.00,,,0.00,643,HR-IXPWINDi_r2_v1.2.,2013-04-23 18:40:00,
2013-04-23 14:46:00,69.4,39.8,30.14,North,9,4.0,6.0,34,0.00,,,0.00,902,HR-IXPWINDi_r2_v1.2.,2013-04-23 18:46:00,
2013-04-23 14:51:00,69.8,39.4,30.14,SSW,196,1.0,6.0,33,0.00,,,0.00,772,HR-IXPWINDi_r2_v1.2.,2013-04-23 18:51:00,
2013-04-23 14:57:00,70.0,40.3,30.14,NNW,335,2.0,6.0,34,0.00,,,0.00,877,HR-IXPWINDi_r2_v1.2.,2013-04-23 18:57:00,
2013-04-23 15:03:00,71.5,40.1,30.13,North,350,4.0,6.0,32,0.00,,,0.00,853,HR-IXPWINDi_r2_v1.2.,2013-04-23 19:03:00,
2013-04-23 15:08:00,71.0,38.0,30.13,ESE,103,2.0,5.0,30,0.00,,,0.00,833,HR-IXPWINDi_r2_v1.2.,2013-04-23 19:08:00,
2013-04-23 15:13:00,72.0,38.8,30.12,North,5,5.0,6.0,30,0.00,,,0.00,816,HR-IXPWINDi_r2_v1.2.,2013-04-23 19:13:00,
2013-04-23 15:18:00,71.9,37.9,30.12,SSW,211,3.0,7.0,29,0.00,,,0.00,802,HR-IXPWINDi_r2_v1.2.,2013-04-23 19:18:00,
2013-04-23 15:24:00,72.3,36.4,30.12,North,5,3.0,7.0,27,0.00,,,0.00,788,HR-IXPWINDi_r2_v1.2.,2013-04-23 19:24:00,
2013-04-23 15:29:00,72.1,36.3,30.11,ESE,119,0.0,5.0,27,0.00,,,0.00,779,HR-IXPWINDi_r2_v1.2.,2013-04-23 19:29:00,
2013-04-23 15:34:00,71.4,39.2,30.11,SE,136,1.0,4.0,31,0.00,,,0.00,770,HR-IXPWINDi_r2_v1.2.,2013-04-23 19:34:00,
2013-04-23 15:39:00,71.4,36.6,30.11,North,350,0.0,7.0,28,0.00,,,0.00,758,HR-IXPWINDi_r2_v1.2.,2013-04-23 19:39:00,
2013-04-23 15:45:00,71.8,39.5,30.11,SSE,148,4.0,7.0,31,0.00,,,0.00,742,HR-IXPWINDi_r2_v1.2.,2013-04-23 19:45:00,
2013-04-23 15:50:00,71.4,39.2,30.11,ESE,111,1.0,7.0,31,0.00,,,0.00,731,HR-IXPWINDi_r2_v1.2.,2013-04-23 19:50:00,
2013-04-23 15:55:00,72.6,38.5,30.11,NNW,342,2.0,7.0,29,0.00,,,0.00,719,HR-IXPWINDi_r2_v1.2.,2013-04-23 19:55:00,
2013-04-23 16:01:00,73.2,43.9,30.10,NW,310,0.0,6.0,35,0.00,,,0.00,707,HR-IXPWINDi_r2_v1.2.,2013-04-23 20:01:00,
2013-04-23 16:06:00,74.5,40.1,30.10,NNW,345,4.0,6.0,29,0.00,,,0.00,698,HR-IXPWINDi_r2_v1.2.,2013-04-23 20:06:00,
2013-04-23 16:11:00,73.7,39.4,30.10,ESE,122,11.0,14.0,29,0.00,,,0.00,682,HR-IXPWINDi_r2_v1.2.,2013-04-23 20:11:00,
2013-04-23 16:16:00,72.5,40.1,30.10,ESE,122,4.0,14.0,31,0.00,,,0.00,668,HR-IXPWINDi_r2_v1.2.,2013-04-23 20:16:00,
2013-04-23 16:21:00,72.1,37.2,30.10,West,261,0.0,14.0,28,0.00,,,0.00,654,HR-IXPWINDi_r2_v1.2.,2013-04-23 20:21:00,
2013-04-23 16:27:00,72.5,39.3,30.09,SSE,158,4.0,12.0,30,0.00,,,0.00,642,HR-IXPWINDi_r2_v1.2.,2013-04-23 20:27:00,
2013-04-23 16:32:00,72.3,38.2,30.09,South,173,2.0,12.0,29,0.00,,,0.00,578,HR-IXPWINDi_r2_v1.2.,2013-04-23 20:32:00,
2013-04-23 16:38:00,72.1,39.8,30.09,SE,140,4.0,11.0,31,0.00,,,0.00,603,HR-IXPWINDi_r2_v1.2.,2013-04-23 20:38:00,
2013-04-23 16:43:00,72.2,39.0,30.08,SE,126,2.0,12.0,30,0.00,,,0.00,605,HR-IXPWINDi_r2_v1.2.,2013-04-23 20:43:00,
2013-04-23 16:48:00,71.7,40.2,30.08,SSW,206,9.0,14.0,32,0.00,,,0.00,584,HR-IXPWINDi_r2_v1.2.,2013-04-23 20:48:00,
2013-04-23 16:53:00,71.8,41.9,30.08,SE,140,9.0,14.0,34,0.00,,,0.00,561,HR-IXPWINDi_r2_v1.2.,2013-04-23 20:53:00,
2013-04-23 16:58:00,71.5,43.1,30.08,SSE,155,9.0,17.0,36,0.00,,,0.00,422,HR-IXPWINDi_r2_v1.2.,2013-04-23 20:58:00,
2013-04-23 17:04:00,70.7,43.8,30.08,SE,128,7.0,17.0,38,0.00,,,0.00,424,HR-IXPWINDi_r2_v1.2.,2013-04-23 21:04:00,
2013-04-23 17:09:00,70.5,42.2,30.08,SE,134,2.0,14.0,36,0.00,,,0.00,443,HR-IXPWINDi_r2_v1.2.,2013-04-23 21:09:00,
2013-04-23 17:14:00,71.0,43.4,30.08,ENE,78,7.0,15.0,37,0.00,,,0.00,513,HR-IXPWINDi_r2_v1.2.,2013-04-23 21:14:00,
2013-04-23 17:21:00,71.6,46.0,30.07,ESE,115,11.0,15.0,40,0.00,,,0.00,492,HR-IXPWINDi_r2_v1.2.,2013-04-23 21:21:00,
2013-04-23 17:26:00,71.2,44.3,30.08,East,95,5.0,12.0,38,0.00,,,0.00,422,HR-IXPWINDi_r2_v1.2.,2013-04-23 21:26:00,
2013-04-23 17:32:00,70.9,43.3,30.07,ESE,121,12.0,15.0,37,0.00,,,0.00,359,HR-IXPWINDi_r2_v1.2.,2013-04-23 21:32:00,
2013-04-23 17:37:00,70.7,43.1,30.07,SE,128,7.0,15.0,37,0.00,,,0.00,336,HR-IXPWINDi_r2_v1.2.,2013-04-23 21:37:00,
2013-04-23 17:42:00,70.8,43.2,30.08,SE,135,4.0,15.0,37,0.00,,,0.00,399,HR-IXPWINDi_r2_v1.2.,2013-04-23 21:42:00,
2013-04-23 17:47:00,70.9,44.7,30.08,SSE,150,9.0,13.0,39,0.00,,,0.00,390,HR-IXPWINDi_r2_v1.2.,2013-04-23 21:47:00,
2013-04-23 17:53:00,71.2,44.3,30.08,South,173,0.0,13.0,38,0.00,,,0.00,362,HR-IXPWINDi_r2_v1.2.,2013-04-23 21:53:00,
2013-04-23 17:58:00,70.7,43.1,30.09,SE,124,11.0,15.0,37,0.00,,,0.00,327,HR-IXPWINDi_r2_v1.2.,2013-04-23 21:58:00,
2013-04-23 18:03:00,69.7,42.9,30.09,SE,127,6.0,16.0,38,0.00,,,0.00,197,HR-IXPWINDi_r2_v1.2.,2013-04-23 22:03:00,
2013-04-23 18:08:00,69.3,43.9,30.09,SSE,157,8.0,16.0,40,0.00,,,0.00,158,HR-IXPWINDi_r2_v1.2.,2013-04-23 22:08:00,
2013-04-23 18:13:00,69.1,43.7,30.09,South,173,6.0,13.0,40,0.00,,,0.00,146,HR-IXPWINDi_r2_v1.2.,2013-04-23 22:13:00,
2013-04-23 18:19:00,68.9,42.9,30.09,South,179,5.0,13.0,39,0.00,,,0.00,137,HR-IXPWINDi_r2_v1.2.,2013-04-23 22:19:00,
2013-04-23 18:24:00,68.8,44.1,30.09,SE,124,11.0,14.0,41,0.00,,,0.00,127,HR-IXPWINDi_r2_v1.2.,2013-04-23 22:24:00,
2013-04-23 18:29:00,68.4,43.7,30.09,ESE,121,4.0,17.0,41,0.00,,,0.00,116,HR-IXPWINDi_r2_v1.2.,2013-04-23 22:29:00,
2013-04-23 18:35:00,68.4,44.4,30.09,SE,133,7.0,17.0,42,0.00,,,0.00,141,HR-IXPWINDi_r2_v1.2.,2013-04-23 22:35:00,
2013-04-23 18:40:00,68.3,44.3,30.09,ESE,105,4.0,11.0,42,0.00,,,0.00,128,HR-IXPWINDi_r2_v1.2.,2013-04-23 22:40:00,
2013-04-23 18:45:00,68.4,44.4,30.09,SE,141,0.0,11.0,42,0.00,,,0.00,120,HR-IXPWINDi_r2_v1.2.,2013-04-23 22:45:00,
2013-04-23 18:51:00,68.5,45.1,30.09,ESE,114,6.0,12.0,43,0.00,,,0.00,113,HR-IXPWINDi_r2_v1.2.,2013-04-23 22:51:00,
2013-04-23 18:56:00,67.9,45.7,30.09,SSE,165,0.0,12.0,45,0.00,,,0.00,104,HR-IXPWINDi_r2_v1.2.,2013-04-23 22:56:00,
2013-04-23 19:01:00,67.7,45.0,30.09,ESE,113,6.0,15.0,44,0.00,,,0.00,93,HR-IXPWINDi_r2_v1.2.,2013-04-23 23:01:00,
2013-04-23 19:07:00,67.3,45.2,30.09,ESE,119,11.0,15.0,45,0.00,,,0.00,79,HR-IXPWINDi_r2_v1.2.,2013-04-23 23:07:00,
2013-04-23 19:12:00,67.0,44.9,30.09,SE,136,12.0,15.0,45,0.00,,,0.00,72,HR-IXPWINDi_r2_v1.2.,2013-04-23 23:12:00,
2013-04-23 19:18:00,66.9,45.4,30.08,SE,131,6.0,15.0,46,0.00,,,0.00,67,HR-IXPWINDi_r2_v1.2.,2013-04-23 23:18:00,
2013-04-23 19:23:00,66.8,45.3,30.08,East,81,4.0,15.0,46,0.00,,,0.00,53,HR-IXPWINDi_r2_v1.2.,2013-04-23 23:23:00,
2013-04-23 19:29:00,66.5,45.0,30.08,SSW,210,2.0,9.0,46,0.00,,,0.00,42,HR-IXPWINDi_r2_v1.2.,2013-04-23 23:29:00,
2013-04-23 19:34:00,66.0,45.1,30.09,South,189,6.0,11.0,47,0.00,,,0.00,32,HR-IXPWINDi_r2_v1.2.,2013-04-23 23:34:00,
2013-04-23 19:40:00,65.9,45.1,30.09,SSW,194,5.0,12.0,47,0.00,,,0.00,25,HR-IXPWINDi_r2_v1.2.,2013-04-23 23:40:00,
2013-04-23 19:45:00,65.6,44.8,30.09,SSW,207,2.0,12.0,47,0.00,,,0.00,21,HR-IXPWINDi_r2_v1.2.,2013-04-23 23:45:00,
2013-04-23 19:50:00,65.4,45.2,30.09,SE,128,0.0,12.0,48,0.00,,,0.00,18,HR-IXPWINDi_r2_v1.2.,2013-04-23 23:50:00,
2013-04-23 19:55:00,65.2,45.5,30.09,North,5,2.0,5.0,49,0.00,,,0.00,14,HR-IXPWINDi_r2_v1.2.,2013-04-23 23:55:00,
2013-04-23 20:01:00,64.8,45.1,30.09,SE,132,6.0,6.0,49,0.00,,,0.00,7,HR-IXPWINDi_r2_v1.2.,2013-04-24 00:01:00,
2013-04-23 20:06:00,64.6,45.5,30.09,SE,130,1.0,15.0,50,0.00,,,0.00,0,HR-IXPWINDi_r2_v1.2.,2013-04-24 00:06:00,
2013-04-23 20:11:00,63.8,46.3,30.10,NNW,336,3.0,15.0,53,0.00,,,0.00,0,HR-IXPWINDi_r2_v1.2.,2013-04-24 00:11:00,
2013-04-23 20:16:00,63.1,45.6,30.10,SSE,155,6.0,8.0,53,0.00,,,0.00,0,HR-IXPWINDi_r2_v1.2.,2013-04-24 00:16:00,
2013-04-23 20:22:00,63.7,46.2,30.10,NW,312,3.0,8.0,53,0.00,,,0.00,0,HR-IXPWINDi_r2_v1.2.,2013-04-24 00:22:00,
2013-04-23 20:28:00,62.4,45.5,30.10,East,91,7.0,10.0,54,0.00,,,0.00,0,HR-IXPWINDi_r2_v1.2.,2013-04-24 00:28:00,
2013-04-23 20:33:00,63.1,46.1,30.10,SE,136,1.0,10.0,54,0.00,,,0.00,0,HR-IXPWINDi_r2_v1.2.,2013-04-24 00:33:00,
2013-04-23 20:38:00,63.0,45.6,30.10,NNW,338,3.0,8.0,53,0.00,,,0.00,0,HR-IXPWINDi_r2_v1.2.,2013-04-24 00:38:00,
2013-04-23 20:43:00,63.1,45.1,30.10,NNW,344,3.0,6.0,52,0.00,,,0.00,0,HR-IXPWINDi_r2_v1.2.,2013-04-24 00:43:00,
2013-04-23 20:49:00,62.9,45.5,30.10,North,355,3.0,6.0,53,0.00,,,0.00,0,HR-IXPWINDi_r2_v1.2.,2013-04-24 00:49:00,
2013-04-23 20:54:00,63.2,45.2,30.11,WNW,300,0.0,6.0,52,0.00,,,0.00,0,HR-IXPWINDi_r2_v1.2.,2013-04-24 00:54:00,
2013-04-23 21:00:00,63.2,46.2,30.11,NNW,333,5.0,6.0,54,0.00,,,0.00,0,HR-IXPWINDi_r2_v1.2.,2013-04-24 01:00:00,
2013-04-23 21:05:00,62.6,45.7,30.11,NW,326,3.0,7.0,54,0.00,,,0.00,0,HR-IXPWINDi_r2_v1.2.,2013-04-24 01:05:00,
2013-04-23 21:11:00,62.8,44.9,30.11,SW,225,0.0,9.0,52,0.00,,,0.00,0,HR-IXPWINDi_r2_v1.2.,2013-04-24 01:11:00,
2013-04-23 21:16:00,63.1,45.1,30.11,ESE,120,1.0,9.0,52,0.00,,,0.00,0,HR-IXPWINDi_r2_v1.2.,2013-04-24 01:16:00,
2013-04-23 21:21:00,63.1,45.1,30.11,North,350,8.0,10.0,52,0.00,,,0.00,0,HR-IXPWINDi_r2_v1.2.,2013-04-24 01:21:00,
2013-04-23 21:26:00,63.0,45.1,30.11,SSW,200,7.0,13.0,52,0.00,,,0.00,0,HR-IXPWINDi_r2_v1.2.,2013-04-24 01:26:00,
2013-04-23 21:32:00,62.6,45.2,30.11,SE,138,7.0,13.0,53,0.00,,,0.00,0,HR-IXPWINDi_r2_v1.2.,2013-04-24 01:32:00,
2013-04-23 21:37:00,62.4,45.0,30.11,SE,132,9.0,11.0,53,0.00,,,0.00,0,HR-IXPWINDi_r2_v1.2.,2013-04-24 01:37:00,
2013-04-23 21:43:00,62.4,45.0,30.12,SSE,157,0.0,12.0,53,0.00,,,0.00,0,HR-IXPWINDi_r2_v1.2.,2013-04-24 01:43:00,
2013-04-23 21:48:00,62.3,44.9,30.11,SE,131,9.0,12.0,53,0.00,,,0.00,0,HR-IXPWINDi_r2_v1.2.,2013-04-24 01:48:00,
2013-04-23 21:53:00,62.1,44.7,30.11,South,176,5.0,12.0,53,0.00,,,0.00,0,HR-IXPWINDi_r2_v1.2.,2013-04-24 01:53:00,
2013-04-23 21:59:00,62.0,45.1,30.12,SSW,200,10.0,15.0,54,0.00,,,0.00,0,HR-IXPWINDi_r2_v1.2.,2013-04-24 01:59:00,
2013-04-23 22:04:00,61.9,44.5,30.12,SE,132,2.0,15.0,53,0.00,,,0.00,0,HR-IXPWINDi_r2_v1.2.,2013-04-24 02:04:00,
2013-04-23 22:10:00,61.8,44.9,30.12,ESE,122,12.0,14.0,54,0.00,,,0.00,0,HR-IXPWINDi_r2_v1.2.,2013-04-24 02:10:00,
2013-04-23 22:16:00,61.6,44.7,30.12,SSE,157,1.0,14.0,54,0.00,,,0.00,0,HR-IXPWINDi_r2_v1.2.,2013-04-24 02:16:00,
2013-04-23 22:21:00,61.7,44.8,30.12,South,183,2.0,14.0,54,0.00,,,0.00,0,HR-IXPWINDi_r2_v1.2.,2013-04-24 02:21:00,
2013-04-23 22:27:00,61.5,44.7,30.12,South,178,7.0,12.0,54,0.00,,,0.00,0,HR-IXPWINDi_r2_v1.2.,2013-04-24 02:27:00,
2013-04-23 22:32:00,61.3,44.9,30.13,South,190,2.0,15.0,55,0.00,,,0.00,0,HR-IXPWINDi_r2_v1.2.,2013-04-24 02:32:00,
2013-04-23 22:38:00,61.2,44.9,30.13,South,171,4.0,15.0,55,0.00,,,0.00,0,HR-IXPWINDi_r2_v1.2.,2013-04-24 02:38:00,
2013-04-23 22:43:00,60.8,45.0,30.13,SE,140,4.0,8.0,56,0.00,,,0.00,0,HR-IXPWINDi_r2_v1.2.,2013-04-24 02:43:00,
2013-04-23 22:48:00,60.7,44.9,30.12,SE,138,8.0,8.0,56,0.00,,,0.00,0,HR-IXPWINDi_r2_v1.2.,2013-04-24 02:48:00,
2013-04-23 22:53:00,60.7,45.3,30.12,South,171,1.0,9.0,57,0.00,,,0.00,0,HR-IXPWINDi_r2_v1.2.,2013-04-24 02:53:00,
2013-04-23 22:59:00,60.6,45.2,30.13,SSE,155,2.0,16.0,57,0.00,,,0.00,0,HR-IXPWINDi_r2_v1.2.,2013-04-24 02:59:00,
2013-04-23 23:05:00,60.5,45.1,30.13,SSE,153,1.0,16.0,57,0.00,,,0.00,0,HR-IXPWINDi_r2_v1.2.,2013-04-24 03:05:00,
2013-04-23 23:11:00,60.1,45.7,30.13,SSW,195,2.0,9.0,59,0.00,,,0.00,0,HR-IXPWINDi_r2_v1.2.,2013-04-24 03:11:00,
2013-04-23 23:16:00,60.4,45.5,30.13,SW,220,1.0,12.0,58,0.00,,,0.00,0,HR-IXPWINDi_r2_v1.2.,2013-04-24 03:16:00,
2013-04-23 23:21:00,60.5,45.6,30.13,SSE,163,0.0,12.0,58,0.00,,,0.00,0,HR-IXPWINDi_r2_v1.2.,2013-04-24 03:21:00,
2013-04-23 23:26:00,59.9,45.5,30.13,SE,133,2.0,6.0,59,0.00,,,0.00,0,HR-IXPWINDi_r2_v1.2.,2013-04-24 03:26:00,
2013-04-23 23:32:00,60.0,45.6,30.13,ESE,115,4.0,6.0,59,0.00,,,0.00,0,HR-IXPWINDi_r2_v1.2.,2013-04-24 03:32:00,
2013-04-23 23:37:00,59.9,45.9,30.12,SE,124,4.0,8.0,60,0.00,,,0.00,0,HR-IXPWINDi_r2_v1.2.,2013-04-24 03:37:00,
2013-04-23 23:42:00,59.9,45.9,30.13,SE,138,4.0,8.0,60,0.00,,,0.00,0,HR-IXPWINDi_r2_v1.2.,2013-04-24 03:42:00,
2013-04-23 23:48:00,59.7,45.7,30.13,ESE,113,4.0,8.0,60,0.00,,,0.00,0,HR-IXPWINDi_r2_v1.2.,2013-04-24 03:48:00,
2013-04-23 23:53:00,59.7,45.7,30.13,South,181,0.0,8.0,60,0.00,,,0.00,0,HR-IXPWINDi_r2_v1.2.,2013-04-24 03:53:00,
2013-04-23 23:58:00,59.7,45.7,30.13,SE,130,2.0,13.0,60,0.00,,,0.00,0,HR-IXPWINDi_r2_v1.2.,2013-04-24 03:58:00,